Frederick, MD

7:35 PM EDT on July 24, 2017 (GMT -0400)
Frederick Municipal

Weather History for KFDK - December, 2012

Change the Weather History Date:

Saturday, December 1, 2012

  Actual Average (KHGR) Record (KHGR)
Temperature  
Mean Temperature 39 °F -  
Max Temperature 48 °F 46 °F 70 °F (2006)
Min Temperature 30 °F 32 °F 19 °F (1999)
Degree Days  
Heating Degree Days 26    
Moisture  
Dew Point 33 °F    
Average Humidity 93    
Maximum Humidity 100    
Minimum Humidity 71    
Precipitation  
Precipitation 0.00 in - - ()
Sea Level Pressure  
Sea Level Pressure 30.42 in    
Wind  
Wind Speed 2 mph (NNE)    
Max Wind Speed 7 mph    
Max Gust Speed -    
Visibility 5 miles    
Events      
Averages and records for this station are not official NWS values.
T = Trace of Precipitation, MM = Missing Value Source: NWS Daily Summary

Daily Weather History Graph

Daily Weather History Graph

Search for Another Location

Airport or City:

Trip Planner

Search our weather history database for the weather conditions in past years. The results will help you decide how hot, cold, wet, or windy it might be!

Date:

Astronomy

Dec. 01, 2012 Rise Set
Actual Time 7:10 AM EST 4:46 PM EST
Civil Twilight 6:41 AM EST 5:16 PM EST
Nautical Twilight 6:07 AM EST 5:49 PM EST
Astronomical Twilight 5:35 AM EST 6:21 PM EST
Moon 7:34 PM EST (12/1) 9:22 AM EST (12/1)
Length of Visible Light 10h 34m
Length of Day
9h 35m
Waning Gibbous, 92% of the Moon is Illuminated
Dec 1
Waning Gibbous
Dec 6
Last Quarter
Dec 13
New
Dec 20
First Quarter
Dec 28
Full

Hourly Weather History & Observations

Time (EST) Temp. Windchill Dew Point Humidity Pressure Visibility Wind Dir Wind Speed Gust Speed Precip Events Conditions
12:00 AM 30.2 °F - 30.2 °F 100% 30.38 in 10.0 mi Calm Calm - N/A   Clear
12:20 AM 30.2 °F - 30.2 °F 100% 30.39 in 10.0 mi Calm Calm - N/A   Clear
12:40 AM 32.0 °F - 30.2 °F 93% 30.38 in 10.0 mi Calm Calm - N/A   Clear
1:00 AM 32.0 °F - 30.2 °F 93% 30.38 in 10.0 mi Calm Calm - N/A   Scattered Clouds
1:25 AM 32.0 °F - 32.0 °F 100% 30.39 in 10.0 mi Calm Calm - N/A   Overcast
1:45 AM 32.0 °F - 32.0 °F 100% 30.38 in 10.0 mi Calm Calm - N/A   Scattered Clouds
2:05 AM 32.0 °F 27.5 °F 32.0 °F 100% 30.39 in 10.0 mi NNE 4.6 mph - N/A   Clear
2:30 AM 32.0 °F 28.7 °F 30.2 °F 93% 30.39 in 7.0 mi NE 3.5 mph - N/A   Clear
2:50 AM 32.0 °F - 30.2 °F 93% 30.39 in 10.0 mi Calm Calm - N/A   Scattered Clouds
3:10 AM 32.0 °F - 30.2 °F 93% 30.39 in 10.0 mi Calm Calm - N/A   Mostly Cloudy
3:30 AM 32.0 °F - 30.2 °F 93% 30.38 in 7.0 mi Calm Calm - N/A   Overcast
3:55 AM 32.0 °F 28.7 °F 32.0 °F 100% 30.40 in 7.0 mi North 3.5 mph - N/A   Overcast
4:15 AM 33.8 °F 28.6 °F 32.0 °F 93% 30.40 in 7.0 mi North 5.8 mph - N/A   Overcast
4:35 AM 33.8 °F 27.7 °F 32.0 °F 93% 30.40 in 7.0 mi NNE 6.9 mph - N/A   Overcast
4:55 AM 35.6 °F 30.7 °F 32.0 °F 87% 30.40 in 7.0 mi NNE 5.8 mph - N/A   Overcast
5:20 AM 35.6 °F 30.7 °F 32.0 °F 87% 30.40 in 7.0 mi NNE 5.8 mph - N/A   Overcast
5:40 AM 35.6 °F 30.7 °F 33.8 °F 93% 30.42 in 7.0 mi NNE 5.8 mph - N/A   Overcast
5:50 AM 35.6 °F 31.7 °F 32.0 °F 87% 30.43 in 7.0 mi North 4.6 mph - N/A   Overcast
6:50 AM 37.4 °F 33.8 °F 33.8 °F 87% 30.43 in 4.0 mi NE 4.6 mph - N/A   Scattered Clouds
7:20 AM 37.4 °F 34.9 °F 33.8 °F 87% 30.43 in 3.0 mi NNE 3.5 mph - N/A   Overcast
7:53 AM 37.4 °F 32.8 °F 33.8 °F 87% 30.47 in 3.0 mi NNE 5.8 mph - N/A   Overcast
8:55 AM 39.2 °F 35.9 °F 35.6 °F 87% 30.48 in 3.0 mi NNE 4.6 mph - N/A   Overcast
9:53 AM 39.2 °F 35.0 °F 37.4 °F 93% 30.48 in 3.0 mi NNE 5.8 mph - N/A   Overcast
12:52 PM 44.6 °F 43.1 °F 39.2 °F 81% 30.42 in 3.0 mi East 3.5 mph - N/A   Overcast
1:50 PM 48.2 °F - 41.0 °F 76% 30.41 in 3.0 mi Calm Calm - N/A   Mostly Cloudy
2:50 PM 48.2 °F - 39.2 °F 71% 30.40 in 3.0 mi North 4.6 mph - N/A   Scattered Clouds
3:46 PM 46.4 °F 44.3 °F 39.2 °F 76% 30.40 in 3.0 mi North 4.6 mph - N/A   Haze
4:45 PM 42.8 °F 41.1 °F 37.4 °F 81% 30.41 in 3.0 mi North 3.5 mph - N/A   Haze
5:50 PM 35.6 °F - 35.6 °F 100% 30.43 in 3.0 mi Calm Calm - N/A   Clear
6:48 PM 33.8 °F - 33.8 °F 100% 30.44 in 4.0 mi Calm Calm - N/A   Clear
7:46 PM 35.6 °F - 35.6 °F 100% 30.44 in 5.0 mi Calm Calm - N/A   Clear
8:10 PM 33.8 °F - 33.8 °F 100% 30.45 in 2.5 mi Calm Calm - N/A   Clear
8:30 PM 33.8 °F - 33.8 °F 100% 30.45 in 2.5 mi Calm Calm - N/A   Clear
8:50 PM 32.0 °F - 32.0 °F 100% 30.44 in 2.0 mi Calm Calm - N/A   Clear
9:15 PM 32.0 °F - 32.0 °F 100% 30.44 in 1.5 mi Calm Calm - N/A   Mist
9:35 PM 32.0 °F - 32.0 °F 100% 30.43 in 2.5 mi Calm Calm - N/A   Clear
9:55 PM 32.0 °F 28.7 °F 32.0 °F 100% 30.44 in 2.5 mi North 3.5 mph - N/A   Clear
10:15 PM 32.0 °F - 32.0 °F 100% 30.43 in 2.0 mi Calm Calm - N/A   Clear
10:40 PM 32.0 °F - 32.0 °F 100% 30.43 in 1.8 mi Calm Calm - N/A   Mist
11:00 PM 32.0 °F 28.7 °F 32.0 °F 100% 30.43 in 1.5 mi NNW 3.5 mph - N/A   Mist
11:20 PM 32.0 °F - 32.0 °F 100% 30.43 in 1.8 mi Calm Calm - N/A   Mist
11:45 PM 32.0 °F - 32.0 °F 100% 30.42 in 1.0 mi Calm Calm - N/A   Overcast